Pineville, WV

6:42 AM EDT on March 28, 2017 (GMT -0400)
Pineville

Weather History for KI16 - January, 2013

Change the Weather History Date:

Monday, January 28, 2013

  Actual Average (KBKW) Record (KBKW)
Temperature  
Mean Temperature 48 °F -  
Max Temperature 61 °F 38 °F 70 °F (1916)
Min Temperature 34 °F 21 °F -17 °F (1963)
Degree Days  
Heating Degree Days 18    
Moisture  
Dew Point 44 °F    
Average Humidity 95    
Maximum Humidity 100    
Minimum Humidity 65    
Precipitation  
Precipitation 0.00 in - - ()
Sea Level Pressure  
Sea Level Pressure 30.27 in    
Wind  
Wind Speed - (North)    
Max Wind Speed -    
Max Gust Speed -    
Visibility 4 miles    
Events Rain    
Averages and records for this station are not official NWS values.
T = Trace of Precipitation, MM = Missing Value Source: NWS Daily Summary

Daily Weather History Graph

Daily Weather History Graph

Search for Another Location

Airport or City:

Trip Planner

Search our weather history database for the weather conditions in past years. The results will help you decide how hot, cold, wet, or windy it might be!

Date:

Astronomy

Jan. 28, 2013 Rise Set
Actual Time 7:32 AM EST 5:46 PM EST
Civil Twilight 7:05 AM EST 6:13 PM EST
Nautical Twilight 6:33 AM EST 6:45 PM EST
Astronomical Twilight 6:02 AM EST 7:16 PM EST
Moon 7:36 PM EST 8:00 AM EST
Length of Visible Light 11h 08m
Length of Day
10h 13m
Full, 98% of the Moon is Illuminated
Jan 28
Full
Feb 3
Last Quarter
Feb 10
New
Feb 17
First Quarter
Feb 25
Full

Hourly Weather History & Observations

Time (EST) Temp. Dew Point Humidity Pressure Visibility Wind Dir Wind Speed Gust Speed Precip Events Conditions
12:15 AM 35.8 °F 35.8 °F 100% 30.34 in 3.0 mi North - - N/A   Overcast
12:35 AM 35.6 °F 35.6 °F 100% 30.34 in 3.0 mi North - - N/A   Overcast
12:55 AM 35.8 °F 35.8 °F 100% 30.33 in 2.5 mi North - - N/A   Overcast
1:15 AM 35.8 °F 35.8 °F 100% 30.33 in 1.8 mi North - - N/A   Overcast
1:35 AM 35.8 °F 35.8 °F 100% 30.32 in 2.0 mi North - - N/A   Overcast
1:55 AM 36.0 °F 36.0 °F 100% 30.32 in 2.0 mi North - - N/A   Overcast
2:15 AM 36.1 °F 36.1 °F 100% 30.32 in 2.0 mi North - - N/A   Overcast
2:35 AM 36.1 °F 36.1 °F 100% 30.32 in 2.5 mi North - - N/A   Overcast
2:55 AM 36.5 °F 36.5 °F 100% 30.33 in 2.0 mi North - - N/A   Overcast
3:15 AM 36.5 °F 36.5 °F 100% 30.32 in 1.5 mi North - - N/A   Overcast
3:55 AM 36.3 °F 36.3 °F 100% 30.32 in 1.8 mi North - - N/A   Overcast
4:15 AM 36.5 °F 36.5 °F 100% 30.32 in 1.8 mi North - - N/A   Overcast
4:35 AM 36.5 °F 36.5 °F 100% 30.31 in 2.5 mi North - - N/A   Overcast
4:55 AM 36.5 °F 36.5 °F 100% 30.31 in 2.0 mi North - - N/A   Overcast
5:15 AM 36.5 °F 36.5 °F 100% 30.31 in 2.5 mi North - - N/A   Overcast
5:35 AM 36.5 °F 36.5 °F 100% 30.31 in 1.8 mi North - - N/A   Overcast
5:55 AM 36.5 °F 36.5 °F 100% 30.32 in 2.0 mi North - - N/A   Overcast
6:15 AM 36.5 °F 36.5 °F 100% 30.32 in 2.5 mi North - - N/A   Overcast
6:55 AM 35.8 °F 35.8 °F 100% 30.32 in 2.5 mi North - - N/A   Mostly Cloudy
7:15 AM 35.1 °F 35.1 °F 100% 30.32 in 1.8 mi North - - N/A   Mostly Cloudy
7:35 AM 34.5 °F 34.5 °F 100% 30.32 in 2.5 mi North - - N/A   Scattered Clouds
7:55 AM 34.0 °F 34.0 °F 100% 30.33 in 1.5 mi North - - N/A   Mist
8:15 AM 34.0 °F 34.0 °F 100% 30.33 in 1.8 mi North - - N/A   Mist
8:35 AM 35.4 °F 35.4 °F 100% 30.33 in 2.5 mi North - - N/A   Clear
8:55 AM 37.0 °F 37.0 °F 100% 30.32 in 3.0 mi North - - N/A   Scattered Clouds
9:15 AM 37.8 °F 37.8 °F 100% 30.32 in 4.0 mi North - - N/A   Scattered Clouds
9:35 AM 39.2 °F 39.2 °F 100% 30.32 in 2.5 mi North - - N/A   Scattered Clouds
9:55 AM 42.6 °F 42.6 °F 100% 30.31 in 5.0 mi North - - N/A   Overcast
10:15 AM 44.6 °F 44.6 °F 100% 30.31 in 5.0 mi North - - N/A   Mostly Cloudy
10:35 AM 47.5 °F 47.1 °F 99% 30.31 in 10.0 mi North - - N/A   Clear
10:55 AM 49.1 °F 48.2 °F 97% 30.31 in 10.0 mi North - - N/A   Scattered Clouds
11:15 AM 49.5 °F 47.5 °F 93% 30.30 in 10.0 mi North - - N/A   Overcast
11:35 AM 49.1 °F 47.3 °F 93% 30.29 in 10.0 mi North - - N/A   Overcast
11:55 AM 51.3 °F 49.1 °F 92% 30.28 in 10.0 mi North - - N/A   Overcast
12:15 PM 52.5 °F 49.1 °F 88% 30.26 in 10.0 mi North - - N/A   Overcast
12:35 PM 49.3 °F 46.9 °F 92% 30.25 in 10.0 mi North - - N/A   Overcast
12:55 PM 48.2 °F 46.4 °F 93% 30.24 in 10.0 mi North - - N/A   Overcast
1:15 PM 49.6 °F 47.5 °F 92% 30.23 in 10.0 mi North - - N/A   Overcast
1:35 PM 53.8 °F 50.4 °F 88% 30.22 in 10.0 mi North - - N/A   Mostly Cloudy
1:55 PM 61.0 °F 49.8 °F 67% 30.21 in 10.0 mi North - - N/A   Mostly Cloudy
2:15 PM 61.3 °F 49.6 °F 65% 30.20 in 10.0 mi North - - N/A   Mostly Cloudy
2:35 PM 61.2 °F 50.4 °F 68% 30.20 in 10.0 mi North - - N/A   Mostly Cloudy
2:55 PM 61.0 °F 50.2 °F 68% 30.20 in 10.0 mi North - - N/A   Overcast
3:15 PM 61.7 °F 50.4 °F 66% 30.20 in 10.0 mi North - - N/A   Overcast
3:35 PM 60.8 °F 50.2 °F 68% 30.20 in 10.0 mi North - - N/A   Overcast
3:55 PM 60.8 °F 50.9 °F 70% 30.21 in 10.0 mi North - - N/A   Overcast
4:15 PM 58.5 °F 50.7 °F 75% 30.21 in 10.0 mi North - - N/A Rain Light Rain
4:35 PM 57.2 °F 51.3 °F 81% 30.21 in 10.0 mi North - - N/A Rain Light Rain
4:55 PM 56.5 °F 51.8 °F 84% 30.21 in 7.0 mi North - - N/A Rain Rain
5:15 PM 52.9 °F 51.8 °F 96% 30.23 in 4.0 mi North - - N/A Rain Rain
5:35 PM 51.6 °F 50.9 °F 97% 30.23 in 3.0 mi North - - N/A Rain Light Rain
6:15 PM 49.6 °F 49.6 °F 100% 30.23 in 1.2 mi North - - N/A Rain Rain
6:35 PM 49.3 °F 49.3 °F 100% 30.24 in 1.0 mi North - - N/A Rain Rain
6:55 PM 48.7 °F 48.7 °F 100% 30.24 in 1.2 mi North - - N/A Rain Light Rain
7:15 PM 48.4 °F 48.4 °F 100% 30.24 in 1.0 mi North - - N/A   Drizzle
7:35 PM 48.2 °F 48.2 °F 100% 30.24 in 0.8 mi North - - N/A Rain Rain
7:55 PM 48.2 °F 48.2 °F 100% 30.24 in 1.2 mi North - - N/A Rain Light Rain
8:15 PM 48.2 °F 48.2 °F 100% 30.24 in 1.0 mi North - - N/A Rain Light Rain
8:35 PM 47.7 °F 47.7 °F 100% 30.24 in 1.0 mi North - - N/A   Overcast
8:55 PM 47.5 °F 47.5 °F 100% 30.24 in 1.0 mi North - - N/A   Overcast
9:15 PM 47.3 °F 47.3 °F 100% 30.24 in 1.0 mi North - - N/A   Light Drizzle
9:35 PM 47.3 °F 47.3 °F 100% 30.23 in 1.2 mi North - - N/A   Overcast
9:55 PM 46.9 °F 46.9 °F 100% 30.23 in 1.0 mi North - - N/A   Overcast
10:15 PM 47.1 °F 47.1 °F 100% 30.23 in 1.0 mi North - - N/A   Overcast
10:35 PM 47.3 °F 47.3 °F 100% 30.23 in 1.5 mi North - - N/A   Overcast
10:55 PM 46.6 °F 46.6 °F 100% 30.23 in 1.2 mi North - - N/A   Overcast
11:15 PM 46.9 °F 46.9 °F 100% 30.23 in 2.0 mi North - - N/A   Overcast
11:35 PM 46.6 °F 46.6 °F 100% 30.23 in 1.2 mi North - - N/A   Overcast
11:55 PM 46.4 °F 46.4 °F 100% 30.23 in 1.2 mi North - - N/A   Overcast